Location: Killam
(52.7910°N, 111.8608°W)
Time: 11:52:31
(UTC+00:00)

CUBEBUG 2 - Pass Details

Date: 11 March 2026
Orbit: 548 x 627 km, 97.9° (Epoch: 14 April)

Event Time Altitude Azimuth Distance (km) Brightness Sun altitude
Rises 11:03:46 0° 6° (N) 2,868 ? -25.2°
Reaches altitude 10° 11:06:10 10° 355° (N) 1,973 ? -24.9°
Enters shadow 11:08:12 22° 332° (NNW) 1,371 ? -24.6°
